P/2013 T1 ( PanSTARRS )

Japanese version
Home page
Updated on April 29, 2014

---------------------------------------------------------------------

* Profile

Discovery Date October 5, 2013
Magnitude 21.8 mag
Discoverer Pan-STARRS 1 telescope (Haleakala)

* Pictures

* Orbital Elements

Epoch 2013 Aug. 16.0 TT = JDT 2456520.5
T 2013 July 31.25248 TT                                 MPC
q   2.2103921            (2000.0)            P               Q
n   0.06935379     Peri.  345.83434     +0.99386308     +0.08293263
a   5.8670876      Node    10.28312     -0.00277752     +0.68024909
e   0.6232557      Incl.   24.20860     -0.11058235     +0.72827423
P  14.2
From 41 observations 2013 Sept. 13-Nov. 4, mean residual 0".3.

* Magnitudes Graph

        m1 = 16.0 + 5 log d + 10.0 log r

---------------------------------------------------------------------

The orbital elements are published on M.P.E.C. 2013-V48.
The magnitudes graphs are made with Comet for Windows.

---------------------------------------------------------------------

Copyright(C) Seiichi Yoshida (comet@aerith.net). All rights reserved.